Flag for United Kingdom Weather past 2 weeks in Dundee, Scotland, United Kingdom

Now
57 °F

Sunny.


Feels Like: 54 °F
Forecast: 42 / 52 °F
Wind: 16 mph from Southwest

Location: Dundee / Riverside

Current Time: May 30, 2015 at 8:15:31 PM

Latest Report: May 30, 2015 at 7:20 PM


Visibility: 10 mi

Pressure: 29.74 "Hg

Humidity: 63%

Dew point: 45 °F

Location of DundeeLocation

Historic Weather in Dundee — Graph

°F

Dundee temperature yesterday

Maximum temperature yesterday: 59 °F (at 1:50 PM)
Minimum temperature yesterday: 45 °F (at 6:20 AM)
Average temperature yesterday: 52 °F

Past Weeks' High & Low Weather Summary

 TemperatureHumidityPressure
High68 °F (May 20, 12:50 PM)94% (May 27, 3:50 PM)30.30 "Hg (May 27, 3:50 PM)
Low43 °F (May 19, 6:20 AM)39% (May 20, 1:50 PM)29.33 "Hg (May 18, 4:20 PM)
Average54 °F67%29.86 "Hg
* Reported May 15 7:20 PM — May 30 7:20 PM, Dundee, Weather by CustomWeather, © 2015

Note: Actual official high and low records may vary slightly from our data, if they occured in-between our weather recording intervals... More about our weather records

Advertising

Dundee weather history for previous 24 hours

 ConditionsComfort  
Time TempWeatherWind HumidityBarometerVisibility
7:20 PM
Sat, May 30
57 °FSunny.16 mph63%29.74 "Hg10 mi
6:50 PM57 °FSunny.15 mph63%29.74 "Hg10 mi
6:20 PM59 °FSunny.10 mph55%29.74 "Hg10 mi
5:20 PM59 °FSunny.14 mph59%29.74 "Hg10 mi
4:50 PM59 °FPassing clouds.10 mph48%29.74 "HgN/A
4:20 PM61 °FPassing clouds.7 mph45%29.74 "HgN/A
3:50 PM59 °FPassing clouds.12 mph55%29.77 "HgN/A
3:20 PM59 °FPassing clouds.14 mph48%29.77 "HgN/A
2:50 PM57 °FPassing clouds.14 mph51%29.77 "HgN/A
2:20 PM57 °FScattered clouds.14 mph59%29.77 "HgN/A
1:50 PM57 °FScattered clouds.18 mph55%29.77 "HgN/A
1:20 PM57 °FScattered clouds.14 mph55%29.77 "HgN/A
12:50 PM57 °FScattered clouds.12 mph51%29.77 "HgN/A
12:20 PM59 °FPassing clouds.16 mph48%29.74 "HgN/A
11:50 AM57 °FPassing clouds.18 mph51%29.74 "HgN/A
11:20 AM57 °FPassing clouds.16 mph59%29.74 "HgN/A
10:50 AM57 °FPassing clouds.16 mph48%29.74 "HgN/A
10:20 AM55 °FPassing clouds.18 mph59%29.74 "HgN/A
9:50 AM54 °FPassing clouds.20 mph63%29.74 "HgN/A
9:20 AM54 °FPassing clouds.20 mph58%29.74 "HgN/A
8:50 AM52 °FPassing clouds.17 mph62%29.74 "HgN/A
8:20 PM
Fri, May 29
50 °FScattered showers. Passing clouds.6 mph67%29.62 "HgN/A
Weather by CustomWeather, © 2015

See weather overviewHow to use our weather pages